Radiation Dose at Monitoring Post of Fukushima Daini Nuclear Power Station
Date,Time,MP-1(microSv/h),MP-2(microSv/h),MP-3(microSv/h),MP-4(microSv/h),MP-5(microSv/h),MP-6(microSv/h),MP-7(microSv/h),Wind Direction,Wind Velocity(m/s),Rain
2023/10/07,00:00,0.149,0.134,0.217,0.206,0.209,0.120,0.076,west-northwest,6.4,No
2023/10/07,00:10,0.150,0.135,0.218,0.206,0.211,0.121,0.077,west-northwest,7.4,No
2023/10/07,00:20,0.150,0.135,0.217,0.205,0.209,0.121,0.077,west-northwest,7.2,No
2023/10/07,00:30,0.150,0.134,0.217,0.206,0.212,0.121,0.076,west-northwest,8.1,No
2023/10/07,00:40,0.149,0.134,0.217,0.207,0.209,0.121,0.077,west-northwest,5.5,No
2023/10/07,00:50,0.149,0.135,0.216,0.204,0.211,0.121,0.077,west-northwest,5.5,No
2023/10/07,01:00,0.149,0.133,0.217,0.206,0.210,0.122,0.077,west-northwest,3.2,No
2023/10/07,01:10,0.149,0.134,0.215,0.205,0.210,0.120,0.077,west-northwest,4.9,No
2023/10/07,01:20,0.150,0.135,0.216,0.206,0.209,0.121,0.078,west-northwest,4.6,No
2023/10/07,01:30,0.149,0.134,0.218,0.205,0.211,0.120,0.076,west-northwest,2.8,No
2023/10/07,01:40,0.149,0.135,0.216,0.205,0.210,0.121,0.077,northwest,4.0,No
2023/10/07,01:50,0.148,0.133,0.217,0.205,0.210,0.121,0.076,west-northwest,5.7,No
2023/10/07,02:00,0.149,0.135,0.216,0.205,0.210,0.121,0.077,west-northwest,6.2,No
2023/10/07,02:10,0.148,0.134,0.216,0.207,0.208,0.121,0.077,west-northwest,5.5,No
2023/10/07,02:20,0.150,0.135,0.216,0.206,0.211,0.121,0.076,west-northwest,4.4,No
2023/10/07,02:30,0.150,0.135,0.217,0.205,0.211,0.121,0.077,west-northwest,4.3,No
2023/10/07,02:40,0.149,0.134,0.216,0.205,0.211,0.120,0.076,west-northwest,4.7,No
2023/10/07,02:50,0.149,0.136,0.218,0.206,0.210,0.121,0.076,west-northwest,5.7,No
2023/10/07,03:00,0.149,0.135,0.216,0.206,0.211,0.121,0.076,west-northwest,4.5,No
2023/10/07,03:10,0.149,0.134,0.217,0.205,0.210,0.122,0.077,west-northwest,8.9,No
2023/10/07,03:20,0.149,0.135,0.217,0.206,0.210,0.121,0.077,west-northwest,8.3,No
2023/10/07,03:30,0.149,0.135,0.216,0.204,0.211,0.122,0.076,northwest,8.8,No
2023/10/07,03:40,0.150,0.134,0.217,0.206,0.210,0.121,0.078,northwest,7.8,No
2023/10/07,03:50,0.149,0.135,0.217,0.206,0.211,0.122,0.077,northwest,7.4,No
2023/10/07,04:00,0.149,0.135,0.216,0.205,0.211,0.121,0.077,northwest,5.7,No
2023/10/07,04:10,0.150,0.135,0.218,0.205,0.213,0.122,0.077,north-northwest,3.7,No
2023/10/07,04:20,0.150,0.135,0.216,0.205,0.209,0.121,0.077,west-northwest,0.7,No
2023/10/07,04:30,0.149,0.135,0.217,0.206,0.210,0.121,0.077,west,1.5,No
2023/10/07,04:40,0.150,0.134,0.218,0.205,0.208,0.120,0.076,north-northwest,1.9,No
2023/10/07,04:50,0.150,0.135,0.217,0.205,0.212,0.121,0.077,northwest,4.4,No
2023/10/07,05:00,0.149,0.134,0.216,0.205,0.210,0.122,0.077,northwest,3.7,No
2023/10/07,05:10,0.149,0.135,0.217,0.207,0.212,0.121,0.077,northwest,4.5,No
2023/10/07,05:20,0.150,0.134,0.217,0.208,0.210,0.121,0.077,northwest,1.8,No
2023/10/07,05:30,0.149,0.134,0.219,0.206,0.211,0.120,0.077,west-northwest,1.5,No
2023/10/07,05:40,0.150,0.135,0.216,0.206,0.211,0.121,0.077,-,CALM,No
2023/10/07,05:50,0.149,0.134,0.218,0.205,0.210,0.120,0.077,west-northwest,2.6,No
2023/10/07,06:00,0.149,0.135,0.218,0.207,0.210,0.122,0.076,west-northwest,3.8,No
2023/10/07,06:10,0.149,0.134,0.217,0.207,0.209,0.122,0.077,west-northwest,4.6,No
2023/10/07,06:20,0.149,0.134,0.217,0.206,0.211,0.121,0.077,northwest,3.7,No
2023/10/07,06:30,0.149,0.135,0.216,0.206,0.209,0.121,0.077,northwest,2.2,No
2023/10/07,06:40,0.149,0.134,0.216,0.204,0.211,0.121,0.077,west-northwest,3.4,No
2023/10/07,06:50,0.149,0.134,0.218,0.205,0.209,0.121,0.076,northwest,2.6,No
2023/10/07,07:00,0.149,0.135,0.216,0.205,0.211,0.120,0.076,northwest,2.3,No
2023/10/07,07:10,0.149,0.135,0.217,0.207,0.210,0.121,0.077,north-northwest,2.6,No
2023/10/07,07:20,0.149,0.135,0.216,0.204,0.211,0.121,0.076,west-northwest,1.6,No
2023/10/07,07:30,0.149,0.134,0.217,0.206,0.209,0.122,0.077,west,1.9,No
2023/10/07,07:40,0.149,0.135,0.218,0.204,0.212,0.121,0.077,west-northwest,5.1,No
2023/10/07,07:50,0.149,0.135,0.216,0.204,0.210,0.122,0.075,northwest,2.7,No
2023/10/07,08:00,0.149,0.135,0.218,0.205,0.211,0.121,0.076,northwest,4.4,No
2023/10/07,08:10,0.149,0.134,0.216,0.203,0.209,0.121,0.077,northwest,4.3,No
2023/10/07,08:20,0.149,0.134,0.214,0.206,0.210,0.121,0.077,northwest,3.1,No
2023/10/07,08:30,0.149,0.134,0.218,0.205,0.209,0.121,0.076,northwest,5.8,No
2023/10/07,08:40,0.149,0.135,0.214,0.205,0.210,0.120,0.076,northwest,5.1,No
2023/10/07,08:50,0.149,0.134,0.217,0.207,0.211,0.122,0.076,west-northwest,7.4,No
2023/10/07,09:00,0.148,0.134,0.216,0.205,0.208,0.122,0.076,west-northwest,8.4,No
2023/10/07,09:10,0.149,0.135,0.216,0.203,0.210,0.120,0.077,west-northwest,7.0,No
2023/10/07,09:20,0.149,0.134,0.218,0.206,0.211,0.121,0.077,west-northwest,5.5,No
2023/10/07,09:30,0.148,0.135,0.215,0.206,0.210,0.121,0.077,west-northwest,6.2,No
2023/10/07,09:40,0.147,0.134,0.217,0.204,0.207,0.121,0.077,northwest,6.6,No
2023/10/07,09:50,0.149,0.134,0.216,0.203,0.209,0.121,0.077,west-northwest,5.5,No
2023/10/07,10:00,0.149,0.135,0.215,0.205,0.211,0.120,0.076,west-northwest,4.8,No
2023/10/07,10:10,0.149,0.135,0.217,0.206,0.209,0.121,0.076,west-northwest,7.0,No
2023/10/07,10:20,0.147,0.134,0.217,0.206,0.207,0.121,0.076,west-northwest,7.3,No
2023/10/07,10:30,0.147,0.134,0.216,0.204,0.209,0.122,0.077,northwest,7.7,No
2023/10/07,10:40,0.149,0.135,0.214,0.204,0.211,0.120,0.077,west-northwest,6.5,No
2023/10/07,10:50,0.148,0.135,0.216,0.203,0.211,0.121,0.077,west-northwest,5.9,No
2023/10/07,11:00,0.148,0.134,0.213,0.206,0.209,0.120,0.076,west-northwest,8.9,No
2023/10/07,11:10,0.147,0.133,0.215,0.207,0.209,0.121,0.076,northwest,7.2,No
2023/10/07,11:20,0.147,0.133,0.213,0.206,0.208,0.122,0.076,northwest,6.5,No
2023/10/07,11:30,0.149,0.134,0.215,0.206,0.210,0.122,0.076,northwest,7.6,No
2023/10/07,11:40,0.150,0.136,0.219,0.203,0.212,0.121,0.076,northwest,7.8,No
2023/10/07,11:50,0.149,0.134,0.219,0.203,0.210,0.121,0.076,northwest,8.7,No
2023/10/07,12:00,0.149,0.134,0.216,0.204,0.208,0.121,0.077,northwest,7.3,No
2023/10/07,12:10,0.148,0.134,0.216,0.205,0.209,0.121,0.077,west-northwest,7.5,No
2023/10/07,12:20,0.148,0.135,0.217,0.206,0.208,0.122,0.077,west-northwest,7.2,No
2023/10/07,12:30,0.150,0.135,0.215,0.205,0.210,0.121,0.077,northwest,5.9,No
2023/10/07,12:40,0.150,0.135,0.218,0.204,0.212,0.122,0.076,northwest,5.6,No
2023/10/07,12:50,0.149,0.134,0.220,0.207,0.211,0.121,0.077,northwest,5.8,No
2023/10/07,13:00,0.148,0.134,0.218,0.208,0.209,0.121,0.077,north-northwest,6.3,No
2023/10/07,13:10,0.148,0.135,0.216,0.206,0.208,0.121,0.076,northwest,6.9,No
2023/10/07,13:20,0.149,0.136,0.215,0.205,0.211,0.121,0.077,northwest,6.4,No
2023/10/07,13:30,0.150,0.134,0.216,0.205,0.213,0.122,0.077,northwest,6.9,No
2023/10/07,13:40,0.150,0.133,0.217,0.207,0.211,0.122,0.077,north-northwest,5.8,No
2023/10/07,13:50,0.149,0.135,0.220,0.206,0.208,0.122,0.077,northwest,5.2,No
2023/10/07,14:00,0.148,0.135,0.217,0.205,0.208,0.121,0.077,north-northwest,8.5,No
2023/10/07,14:10,0.149,0.134,0.217,0.205,0.208,0.121,0.077,northwest,7.9,No
2023/10/07,14:20,0.149,0.134,0.216,0.205,0.212,0.121,0.076,northwest,6.5,No
2023/10/07,14:30,0.148,0.135,0.218,0.208,0.211,0.121,0.077,north-northwest,7.3,No
2023/10/07,14:40,0.148,0.135,0.217,0.206,0.209,0.122,0.077,north-northwest,7.1,No
2023/10/07,14:50,0.150,0.134,0.217,0.206,0.212,0.121,0.077,northwest,4.0,No
2023/10/07,15:00,0.150,0.135,0.220,0.208,0.211,0.122,0.077,northwest,4.0,No
2023/10/07,15:10,0.150,0.135,0.218,0.206,0.211,0.122,0.076,northwest,2.9,No
2023/10/07,15:20,0.151,0.135,0.219,0.209,0.212,0.121,0.077,west-northwest,2.8,No
2023/10/07,15:30,0.149,0.136,0.218,0.207,0.210,0.121,0.076,west-northwest,2.2,No
2023/10/07,15:40,0.150,0.135,0.218,0.208,0.213,0.121,0.077,west-northwest,3.2,No
2023/10/07,15:50,0.150,0.135,0.219,0.207,0.210,0.122,0.077,northwest,4.3,No
2023/10/07,16:00,0.150,0.135,0.218,0.205,0.210,0.121,0.076,northwest,2.6,No
2023/10/07,16:10,0.150,0.135,0.220,0.209,0.211,0.122,0.077,northwest,5.6,No
2023/10/07,16:20,0.150,0.135,0.218,0.207,0.209,0.121,0.077,northwest,5.0,No
2023/10/07,16:30,0.151,0.135,0.218,0.207,0.210,0.121,0.078,northwest,6.0,No
2023/10/07,16:40,0.149,0.135,0.218,0.206,0.211,0.121,0.077,north-northwest,4.6,No
2023/10/07,16:50,0.150,0.136,0.219,0.208,0.208,0.121,0.077,northwest,4.6,No
2023/10/07,17:00,0.149,0.135,0.219,0.206,0.211,0.121,0.076,northwest,6.5,No
2023/10/07,17:10,0.150,0.136,0.218,0.208,0.209,0.122,0.077,northwest,6.9,No
2023/10/07,17:20,0.150,0.135,0.219,0.206,0.212,0.122,0.076,northwest,6.5,No
2023/10/07,17:30,0.150,0.136,0.218,0.207,0.210,0.121,0.077,northwest,7.3,No
2023/10/07,17:40,0.150,0.136,0.219,0.208,0.212,0.123,0.077,northwest,6.4,No
2023/10/07,17:50,0.151,0.136,0.218,0.208,0.210,0.121,0.077,northwest,7.7,No
2023/10/07,18:00,0.149,0.136,0.220,0.208,0.211,0.121,0.077,northwest,6.6,No
2023/10/07,18:10,0.150,0.135,0.219,0.207,0.210,0.121,0.077,northwest,6.0,No
2023/10/07,18:20,0.150,0.135,0.219,0.208,0.211,0.121,0.076,northwest,6.2,No
2023/10/07,18:30,0.150,0.135,0.219,0.206,0.211,0.122,0.077,northwest,7.0,No
2023/10/07,18:40,0.150,0.136,0.219,0.208,0.211,0.122,0.077,north-northwest,6.8,No
2023/10/07,18:50,0.150,0.135,0.218,0.207,0.212,0.122,0.077,northwest,6.4,No
2023/10/07,19:00,0.151,0.135,0.218,0.207,0.210,0.121,0.077,northwest,5.8,No
2023/10/07,19:10,0.151,0.135,0.217,0.208,0.212,0.122,0.076,northwest,6.2,No
2023/10/07,19:20,0.150,0.135,0.220,0.206,0.211,0.121,0.077,northwest,5.1,No
2023/10/07,19:30,0.150,0.136,0.218,0.208,0.212,0.122,0.077,northwest,5.0,No
2023/10/07,19:40,0.150,0.135,0.218,0.207,0.209,0.122,0.077,northwest,5.3,No
2023/10/07,19:50,0.149,0.135,0.218,0.207,0.212,0.122,0.078,northwest,6.0,No
2023/10/07,20:00,0.150,0.135,0.218,0.207,0.209,0.121,0.077,northwest,4.6,No
2023/10/07,20:10,0.150,0.136,0.220,0.208,0.211,0.122,0.076,west-northwest,7.3,No
2023/10/07,20:20,0.150,0.135,0.219,0.207,0.211,0.123,0.077,west-northwest,6.6,No
2023/10/07,20:30,0.150,0.135,0.218,0.206,0.211,0.122,0.077,northwest,5.6,No
2023/10/07,20:40,0.150,0.135,0.218,0.207,0.211,0.121,0.077,west-northwest,6.2,No
2023/10/07,20:50,0.151,0.135,0.217,0.206,0.209,0.122,0.077,west-northwest,6.4,No
2023/10/07,21:00,0.150,0.135,0.218,0.206,0.212,0.121,0.078,northwest,6.8,No
2023/10/07,21:10,0.149,0.136,0.219,0.207,0.210,0.121,0.078,northwest,8.1,No
2023/10/07,21:20,0.149,0.135,0.218,0.207,0.212,0.122,0.077,northwest,7.9,No
2023/10/07,21:30,0.151,0.135,0.219,0.208,0.208,0.121,0.077,northwest,7.6,No
2023/10/07,21:40,0.150,0.135,0.220,0.207,0.211,0.122,0.078,west-northwest,6.9,No
2023/10/07,21:50,0.150,0.135,0.218,0.207,0.210,0.122,0.078,northwest,7.4,No
2023/10/07,22:00,0.150,0.135,0.219,0.208,0.211,0.122,0.077,northwest,7.4,No
2023/10/07,22:10,0.151,0.135,0.218,0.206,0.212,0.122,0.076,northwest,6.8,No
2023/10/07,22:20,0.150,0.135,0.219,0.207,0.210,0.121,0.077,northwest,6.8,No
2023/10/07,22:30,0.150,0.135,0.219,0.206,0.211,0.121,0.077,west-northwest,5.3,No
2023/10/07,22:40,0.151,0.135,0.218,0.207,0.208,0.121,0.077,west-northwest,4.8,No
2023/10/07,22:50,0.150,0.134,0.219,0.209,0.213,0.121,0.077,west-northwest,5.5,No
2023/10/07,23:00,0.151,0.136,0.219,0.206,0.209,0.122,0.077,northwest,2.9,No
2023/10/07,23:10,0.150,0.136,0.219,0.207,0.211,0.121,0.077,north,1.2,No
2023/10/07,23:20,0.150,0.135,0.219,0.207,0.211,0.122,0.077,north,1.6,No
2023/10/07,23:30,0.151,0.136,0.219,0.208,0.211,0.122,0.076,north-northwest,2.7,No
2023/10/07,23:40,0.149,0.136,0.218,0.208,0.212,0.121,0.077,northwest,2.5,No
2023/10/07,23:50,0.150,0.135,0.219,0.206,0.210,0.121,0.078,west-northwest,2.8,No
